QPF
0.04 0.04 0.03 0.03 0.02 0.02 0.02 0.03 0.03 0.01 0.00 0.00 0.00 0.00 0.00 0.00 0.00 0.00 0.00 0.00 0.00 0.00 0.00 0.01 0.03 0.03 0.01 0.01 0.01 0.00 0.00 0.00 0.00 0.00 0.00 0.00 0.00 0.00 0.01 0.00 0.00 0.00 0.00
0.00 0.01 0.02 0.03 0.04 0.04 0.03 0.02 0.03 0.02 0.00 0.00 0.00 0.00 0.00 0.00 0.00 0.00 0.00 0.00 0.00 0.00 0.00 0.01 0.03 0.05 0.03 0.01 0.02 0.01 0.00 0.00 0.00 0.00 0.00 0.00 0.00 0.00 0.00 0.00 0.00 0.00 0.00
0.00 0.00 0.00 0.00 0.01 0.02 0.02 0.03 0.03 0.04 0.02 0.01 0.00 0.00 0.00 0.00 0.00 0.00 0.00 0.00 0.00 0.00 0.00 0.00 0.00 0.02 0.06 0.06 0.01 0.00 0.01 0.00 0.00 0.00 0.00 0.00 0.00 0.00 0.00 0.00 0.00 0.00 0.00
0.00 0.00 0.00 0.00 0.00 0.00 0.01 0.02 0.02 0.02 0.03 0.03 0.00 0.00 0.00 0.00 0.00 0.00 0.00 0.00 0.00 0.00 0.00 0.00 0.00 0.00 0.00 0.02 0.02 0.00 0.00 0.00 0.00 0.00 0.00 0.00 0.00 0.00 0.00 0.00 0.00 0.00 0.00
0.00 0.00 0.00 0.00 0.00 0.00 0.00 0.00 0.01 0.03 0.04 0.03 0.01 0.00 0.00 0.00 0.00 0.00 0.00 0.00 0.00 0.00 0.00 0.00 0.00 0.00 0.00 0.00 0.02 0.02 0.00 0.00 0.00 0.00 0.00 0.00 0.00 0.00 0.00 0.00 0.00 0.00 0.00
0.00 0.00 0.00 0.00 0.00 0.00 0.00 0.00 0.00 0.02 0.04 0.05 0.03 0.01 0.00 0.00 0.00 0.00 0.00 0.00 0.00 0.00 0.00 0.00 0.00 0.00 0.00 0.00 0.00 0.02 0.02 0.01 0.00 0.00 0.00 0.00 0.00 0.00 0.00 0.00 0.00 0.00 0.00
0.00 0.00 0.00 0.00 0.00 0.00 0.00 0.00 0.00 0.00 0.02 0.04 0.04 0.04 0.03 0.02 0.01 0.01 0.01 0.00 0.00 0.00 0.00 0.00 0.00 0.00 0.00 0.00 0.00 0.01 0.02 0.02 0.02 0.00 0.01 0.00 0.00 0.00 0.00 0.00 0.00 0.00 0.00
0.00 0.00 0.00 0.00 0.00 0.00 0.00 0.00 0.00 0.00 0.00 0.01 0.03 0.03 0.04 0.03 0.02 0.01 0.01 0.01 0.00 0.01 0.00 0.00 0.00 0.00 0.00 0.00 0.00 0.00 0.00 0.02 0.05 0.03 0.00 0.00 0.00 0.00 0.00 0.00 0.00 0.00 0.00
0.00 0.00 0.00 0.00 0.00 0.00 0.00 0.00 0.00 0.00 0.00 0.00 0.00 0.02 0.03 0.05 0.04 0.03 0.04 0.03 0.01 0.01 0.01 0.00 0.00 0.00 0.01 0.01 0.00 0.00 0.00 0.00 0.01 0.03 0.02 0.00 0.00 0.00 0.00 0.00 0.00 0.00 0.00
0.00 0.00 0.00 0.00 0.00 0.00 0.00 0.00 0.00 0.00 0.00 0.00 0.00 0.00 0.01 0.03 0.03 0.03 0.02 0.02 0.01 0.01 0.01 0.04 0.04 0.03 0.06 0.09 0.06 0.02 0.01 0.00 0.02 0.02 0.01 0.00 0.00 0.00 0.00 0.00 0.00 0.00 0.00
0.00 0.00 0.00 0.00 0.00 0.00 0.00 0.00 0.00 0.00 0.01 0.00 0.00 0.00 0.00 0.01 0.03 0.06 0.07 0.04 0.02 0.01 0.01 0.05 0.05 0.05 0.04 0.04 0.06 0.07 0.04 0.01 0.02 0.03 0.03 0.00 0.00 0.00 0.00 0.00 0.00 0.00 0.00
0.00 0.00 0.00 0.00 0.00 0.00 0.00 0.00 0.00 0.01 0.01 0.01 0.00 0.00 0.00 0.00 0.01 0.04 0.06 0.04 0.05 0.04 0.03 0.03 0.04 0.04 0.04 0.03 0.01 0.02 0.05 0.05 0.04 0.02 0.02 0.03 0.00 0.00 0.00 0.00 0.00 0.00 0.00
0.00 0.00 0.00 0.00 0.00 0.00 0.00 0.00 0.01 0.01 0.00 0.00 0.00 0.00 0.00 0.00 0.01 0.02 0.04 0.04 0.04 0.03 0.02 0.02 0.02 0.03 0.03 0.03 0.02 0.01 0.01 0.02 0.05 0.05 0.01 0.02 0.02 0.00 0.00 0.00 0.00 0.00 0.00
0.00 0.00 0.00 0.00 0.00 0.00 0.00 0.01 0.00 0.00 0.00 0.00 0.00 0.00 0.00 0.01 0.01 0.02 0.04 0.05 0.05 0.04 0.02 0.01 0.01 0.01 0.01 0.01 0.01 0.01 0.00 0.01 0.02 0.04 0.04 0.01 0.01 0.01 0.00 0.00 0.00 0.00 0.00
0.00 0.00 0.00 0.00 0.00 0.00 0.01 0.00 0.00 0.00 0.00 0.00 0.00 0.00 0.00 0.00 0.01 0.02 0.04 0.07 0.07 0.03 0.01 0.00 0.00 0.00 0.00 0.00 0.00 0.00 0.00 0.00 0.01 0.03 0.03 0.03 0.02 0.01 0.01 0.00 0.00 0.00 0.00
0.00 0.00 0.00 0.00 0.00 0.01 0.00 0.00 0.00 0.00 0.00 0.00 0.00 0.00 0.00 0.00 0.01 0.03 0.04 0.05 0.06 0.04 0.03 0.00 0.00 0.00 0.00 0.00 0.00 0.00 0.01 0.01 0.01 0.01 0.02 0.03 0.03 0.02 0.01 0.00 0.00 0.00 0.00
0.00 0.00 0.00 0.00 0.00 0.01 0.00 0.00 0.00 0.00 0.00 0.00 0.00 0.00 0.00 0.00 0.01 0.02 0.05 0.06 0.06 0.04 0.02 0.02 0.00 0.00 0.00 0.00 0.00 0.00 0.00 0.01 0.01 0.01 0.00 0.01 0.01 0.02 0.02 0.00 0.00 0.00 0.00
0.00 0.00 0.00 0.00 0.00 0.00 0.00 0.00 0.00 0.00 0.00 0.00 0.00 0.00 0.00 0.00 0.00 0.02 0.05 0.06 0.06 0.04 0.02 0.01 0.01 0.00 0.00 0.00 0.00 0.00 0.00 0.00 0.00 0.00 0.00 0.00 0.00 0.01 0.01 0.01 0.00 0.00 0.00
0.00 0.00 0.00 0.00 0.00 0.00 0.00 0.00 0.00 0.00 0.00 0.00 0.00 0.00 0.00 0.00 0.00 0.02 0.03 0.04 0.05 0.07 0.06 0.03 0.01 0.00 0.01 0.00 0.00 0.00 0.00 0.00 0.00 0.00 0.00 0.00 0.01 0.01 0.01 0.01 0.01 0.01 0.00
0.00 0.00 0.00 0.00 0.00 0.00 0.00 0.00 0.00 0.01 0.00 0.00 0.00 0.00 0.00 0.00 0.00 0.00 0.01 0.02 0.04 0.05 0.06 0.04 0.01 0.00 0.00 0.00 0.00 0.00 0.00 0.00 0.00 0.00 0.00 0.00 0.00 0.01 0.01 0.00 0.01 0.01 0.01
0.00 0.00 0.00 0.00 0.00 0.00 0.00 0.00 0.00 0.01 0.00 0.00 0.00 0.00 0.00 0.00 0.00 0.00 0.01 0.02 0.03 0.06 0.07 0.04 0.02 0.01 0.00 0.00 0.00 0.00 0.00 0.00 0.00 0.01 0.00 0.00 0.00 0.00 0.00 0.00 0.00 0.00 0.00
0.00 0.00 0.00 0.00 0.00 0.00 0.00 0.00 0.00 0.00 0.00 0.00 0.00 0.00 0.00 0.00 0.00 0.00 0.01 0.02 0.03 0.04 0.05 0.06 0.04 0.02 0.01 0.01 0.01 0.00 0.01 0.00 0.00 0.00 0.00 0.00 0.00 0.00 0.00 0.00 0.00 0.00 0.00
0.00 0.00 0.00 0.00 0.00 0.00 0.00 0.00 0.00 0.00 0.00 0.00 0.00 0.00 0.00 0.00 0.00 0.00 0.00 0.00 0.01 0.01 0.02 0.03 0.02 0.03 0.02 0.00 0.01 0.01 0.01 0.01 0.00 0.00 0.00 0.01 0.00 0.00 0.00 0.00 0.00 0.00 0.00
0.00 0.00 0.00 0.00 0.00 0.00 0.00 0.00 0.00 0.00 0.00 0.00 0.00 0.00 0.00 0.00 0.00 0.00 0.00 0.00 0.00 0.00 0.01 0.01 0.01 0.01 0.00 0.00 0.00 0.00 0.00 0.00 0.00 0.00 0.00 0.00 0.00 0.00 0.00 0.00 0.00 0.00 0.00
0.00 0.00 0.00 0.00 0.00 0.00 0.00 0.00 0.00 0.00 0.00 0.00 0.00 0.00 0.00 0.00 0.00 0.00 0.00 0.00 0.00 0.00 0.00 0.00 0.00 0.00 0.00 0.00 0.00 0.00 0.00 0.00 0.00 0.00 0.00 0.00 0.00 0.00 0.00 0.00 0.00 0.00 0.00
0.00 0.00 0.00 0.00 0.00 0.00 0.00 0.00 0.00 0.00 0.00 0.00 0.00 0.00 0.00 0.00 0.00 0.00 0.00 0.00 0.00 0.00 0.00 0.00 0.00 0.00 0.00 0.00 0.00 0.00 0.00 0.00 0.00 0.00 0.00 0.00 0.00 0.00 0.00 0.00 0.00 0.00 0.00
MSLP
1018.55 1018.01 1017.52 1017.04 1016.60 1016.11 1015.32 1014.74 1014.37 1014.21 1014.23 1014.07 1013.74 1013.81 1013.91 1013.90 1013.85 1013.90 1014.09 1014.39 1014.58 1014.72 1014.81 1014.83 1014.95 1015.40 1015.89 1016.38 1016.79 1016.99 1017.16 1017.50 1017.83 1018.14 1018.39 1018.61 1018.82 1019.23 1019.57 1019.89 1020.22 1020.58 1020.82
1019.51 1018.90 1018.12 1017.37 1016.83 1016.65 1016.12 1015.67 1014.59 1013.90 1013.80 1013.70 1013.21 1012.95 1012.91 1012.97 1012.97 1013.19 1013.19 1013.38 1014.05 1014.20 1014.30 1014.32 1014.49 1014.77 1015.15 1015.53 1016.18 1016.62 1016.87 1017.10 1017.44 1017.85 1018.16 1018.44 1018.67 1019.00 1019.32 1019.82 1020.09 1020.61 1020.87
1020.24 1019.74 1018.85 1018.03 1017.44 1016.89 1016.21 1015.62 1014.93 1013.96 1013.34 1013.32 1012.86 1012.37 1012.13 1012.14 1012.05 1012.06 1012.37 1012.54 1012.66 1013.52 1013.75 1013.82 1014.00 1014.19 1014.52 1014.83 1015.37 1015.96 1016.42 1016.76 1017.04 1017.47 1017.93 1018.27 1018.58 1018.88 1019.19 1019.53 1019.79 1020.45 1020.88
1020.80 1020.29 1019.42 1018.80 1018.35 1017.34 1016.45 1015.80 1015.44 1014.72 1014.14 1012.84 1012.48 1011.96 1011.59 1011.43 1011.36 1011.15 1011.27 1011.52 1011.75 1011.91 1012.76 1013.23 1013.42 1013.71 1013.92 1014.29 1014.72 1015.14 1015.68 1016.24 1016.58 1016.95 1017.46 1017.98 1018.34 1018.72 1019.07 1019.36 1019.64 1020.20 1020.62
1021.14 1020.64 1019.85 1019.42 1018.79 1018.20 1017.36 1016.76 1016.04 1015.55 1014.70 1013.77 1012.63 1011.53 1011.04 1010.80 1010.53 1010.55 1010.17 1010.31 1010.80 1010.98 1011.21 1011.86 1012.63 1012.99 1013.25 1013.50 1013.90 1014.29 1014.75 1015.35 1015.86 1016.36 1016.87 1017.37 1017.89 1018.29 1018.81 1019.07 1019.53 1019.91 1020.24
1021.35 1020.83 1020.22 1019.77 1019.14 1018.66 1018.07 1017.31 1016.66 1016.00 1015.50 1014.30 1012.95 1012.00 1010.92 1010.00 1009.69 1009.57 1009.48 1009.42 1009.34 1009.95 1010.29 1010.79 1011.43 1011.95 1012.51 1012.86 1013.15 1013.56 1013.99 1014.50 1015.16 1015.64 1016.07 1016.71 1017.30 1017.74 1018.25 1018.74 1019.19 1019.61 1019.89
1021.48 1020.92 1020.72 1020.25 1019.66 1018.93 1018.35 1017.87 1017.38 1016.61 1015.62 1014.85 1013.57 1011.59 1010.19 1009.46 1008.60 1008.95 1008.98 1008.54 1008.53 1008.26 1008.94 1009.59 1010.16 1010.63 1011.19 1012.06 1012.35 1012.64 1013.06 1013.57 1014.04 1014.76 1015.39 1015.97 1016.54 1017.16 1017.60 1018.24 1018.84 1019.26 1019.60
1021.79 1021.19 1021.11 1020.60 1020.17 1019.47 1018.77 1018.06 1017.59 1016.84 1016.30 1015.66 1014.77 1013.30 1010.50 1008.50 1008.11 1006.96 1008.40 1008.42 1008.12 1007.98 1007.80 1008.26 1009.12 1009.70 1010.08 1010.48 1011.26 1011.85 1012.16 1012.50 1013.08 1013.75 1014.44 1015.05 1015.81 1016.46 1016.97 1017.60 1018.25 1018.80 1019.16
1021.94 1021.51 1021.23 1021.01 1020.53 1019.99 1019.18 1018.52 1017.82 1017.06 1016.28 1016.07 1015.74 1014.80 1012.31 1009.70 1009.02 1007.33 1007.07 1007.76 1007.74 1007.59 1007.29 1007.26 1007.86 1008.54 1009.17 1009.37 1009.89 1010.72 1011.20 1011.61 1012.14 1012.77 1013.48 1014.16 1014.71 1015.50 1016.23 1016.82 1017.36 1018.12 1018.59
1021.70 1021.35 1021.20 1020.94 1020.66 1020.08 1019.35 1018.71 1017.97 1017.45 1016.60 1015.76 1015.51 1014.76 1013.93 1012.84 1011.23 1008.83 1007.66 1006.65 1006.78 1006.40 1006.47 1006.81 1006.87 1007.81 1008.02 1008.44 1008.74 1009.17 1009.83 1010.71 1011.32 1011.81 1012.48 1013.08 1013.77 1014.35 1015.14 1016.02 1016.59 1017.07 1017.80
1021.92 1021.47 1021.24 1020.80 1020.31 1019.89 1019.26 1018.58 1017.96 1017.26 1016.47 1015.60 1015.06 1014.44 1013.89 1012.89 1011.73 1009.92 1007.38 1006.55 1005.47 1005.08 1005.32 1005.80 1006.20 1007.43 1008.04 1007.56 1007.79 1008.34 1008.89 1009.51 1010.36 1011.12 1011.47 1012.09 1012.78 1013.56 1014.00 1014.79 1015.75 1016.27 1016.74
1021.97 1021.42 1021.01 1020.45 1020.02 1019.46 1018.81 1018.15 1017.49 1016.94 1015.91 1015.24 1014.78 1014.14 1013.46 1012.48 1011.22 1010.03 1008.09 1006.46 1005.23 1004.28 1004.29 1004.52 1004.90 1005.63 1006.79 1006.86 1006.23 1007.08 1007.81 1008.26 1009.25 1010.08 1010.64 1011.10 1011.71 1012.46 1013.12 1013.52 1014.43 1015.26 1015.73
1021.79 1021.18 1020.66 1020.18 1019.57 1019.08 1018.47 1017.70 1017.02 1016.66 1015.97 1015.24 1014.26 1013.38 1012.73 1011.95 1011.04 1009.90 1008.63 1006.46 1005.00 1003.74 1003.39 1003.35 1003.72 1004.39 1004.86 1005.53 1005.13 1006.07 1006.38 1007.18 1008.09 1008.86 1009.55 1010.05 1010.60 1011.23 1012.00 1012.52 1013.12 1014.00 1014.65
1021.88 1021.13 1020.59 1020.07 1019.44 1018.81 1018.03 1017.47 1017.10 1016.52 1015.84 1014.96 1014.05 1013.27 1012.19 1011.31 1010.50 1009.39 1007.87 1006.51 1004.29 1002.99 1002.63 1002.11 1002.76 1003.14 1003.66 1003.87 1004.11 1004.78 1004.84 1005.57 1006.66 1007.43 1008.09 1008.86 1009.43 1010.06 1010.74 1011.49 1012.11 1012.87 1013.58
1021.55 1020.88 1020.36 1019.89 1019.27 1018.50 1017.74 1017.44 1016.94 1016.31 1015.52 1014.65 1013.74 1012.85 1011.70 1010.44 1009.62 1008.62 1007.23 1005.76 1003.97 1002.43 1001.06 1001.08 1001.27 1001.79 1001.93 1001.96 1002.48 1003.29 1003.76 1004.14 1005.38 1006.06 1006.54 1007.10 1008.09 1008.75 1009.54 1010.23 1010.93 1011.69 1012.47
1021.45 1020.77 1020.18 1019.60 1018.88 1018.31 1017.67 1017.21 1016.70 1015.94 1015.01 1014.31 1013.27 1012.32 1011.36 1010.02 1009.05 1007.98 1006.40 1004.70 1002.80 1001.25 1000.11 999.47 999.33 999.78 1000.48 1000.82 1001.53 1002.02 1002.44 1003.28 1003.95 1004.47 1005.30 1006.03 1006.64 1007.25 1008.16 1008.85 1009.58 1010.36 1011.14
1021.25 1020.58 1020.03 1019.38 1018.68 1018.19 1017.62 1017.03 1016.40 1015.63 1014.71 1013.83 1012.73 1011.64 1010.71 1009.85 1008.48 1007.50 1005.86 1003.41 1001.10 1000.12 999.03 998.44 998.38 998.74 999.02 999.61 1000.33 1000.79 1001.47 1002.00 1002.35 1003.17 1003.96 1004.68 1005.33 1005.84 1006.67 1007.49 1008.26 1009.03 1009.80
1021.04 1020.40 1019.91 1019.32 1018.66 1018.14 1017.51 1016.88 1016.18 1015.37 1014.31 1013.38 1012.45 1011.32 1010.17 1009.18 1008.17 1007.17 1005.42 1003.17 999.67 998.37 997.85 997.22 997.09 997.51 997.76 998.65 999.30 999.56 1000.36 1001.08 1001.55 1001.99 1002.67 1003.24 1003.98 1004.93 1005.43 1006.12 1006.94 1007.72 1008.49
1021.01 1020.33 1019.93 1019.42 1018.76 1018.18 1017.40 1016.87 1016.22 1015.14 1014.12 1013.45 1012.47 1011.33 1010.09 1009.11 1007.78 1006.59 1004.87 1002.96 1000.67 997.54 996.16 996.37 995.97 996.41 996.88 997.63 998.35 999.06 999.23 1000.12 1000.71 1000.72 1001.60 1002.20 1002.87 1003.71 1004.36 1004.83 1005.53 1006.29 1007.11
1021.07 1020.45 1020.03 1019.60 1018.90 1018.29 1017.42 1016.87 1016.03 1014.99 1013.95 1013.24 1012.37 1011.31 1010.20 1009.14 1007.80 1006.48 1004.80 1003.00 1001.01 998.68 995.16 994.49 995.00 995.68 996.13 996.98 997.53 998.11 998.77 999.19 999.62 1000.26 1000.91 1001.19 1001.84 1002.59 1003.26 1003.92 1004.54 1005.10 1005.78
1021.24 1020.65 1020.05 1019.61 1018.98 1018.36 1017.57 1016.82 1015.85 1014.75 1013.67 1012.72 1011.86 1010.93 1009.96 1008.97 1007.60 1006.49 1005.07 1003.32 1001.52 999.10 995.33 993.79 994.50 995.53 995.99 996.39 996.56 997.29 998.06 998.73 998.97 999.45 1000.05 1000.64 1001.07 1001.79 1002.55 1003.14 1003.47 1004.00 1004.54
1021.21 1020.70 1020.04 1019.56 1018.94 1018.33 1017.74 1016.86 1015.84 1014.55 1013.39 1012.42 1011.36 1010.44 1009.61 1008.52 1007.33 1005.89 1004.87 1003.66 1002.16 999.77 997.07 994.48 994.87 995.45 995.87 996.21 996.44 996.83 997.85 998.68 999.14 998.97 999.25 999.89 1000.26 1000.83 1001.41 1002.01 1002.07 1002.76 1003.52
1021.18 1020.55 1019.96 1019.44 1018.86 1018.33 1017.73 1016.75 1015.58 1014.36 1013.27 1012.43 1011.49 1010.43 1009.41 1008.59 1007.34 1005.97 1004.87 1003.32 1001.70 1001.72 999.27 996.75 996.08 997.36 997.30 997.49 997.13 997.13 997.34 997.89 998.22 998.37 998.62 999.68 1000.05 1000.29 1000.66 1001.02 1001.25 1002.01 1002.52
1021.31 1020.53 1019.92 1019.46 1018.92 1018.26 1017.75 1016.73 1015.49 1014.16 1013.23 1012.41 1011.62 1010.68 1009.60 1008.48 1007.50 1006.04 1004.78 1003.24 1003.76 1001.06 1000.33 998.35 997.92 998.38 998.59 999.14 998.90 998.13 997.71 997.96 998.59 998.65 998.67 999.63 999.79 1000.05 1000.31 1000.43 1000.65 1001.08 1001.56
1021.40 1020.76 1020.24 1019.62 1019.03 1018.34 1017.77 1016.85 1015.59 1014.27 1013.29 1012.30 1011.51 1010.80 1009.83 1008.68 1007.67 1006.55 1005.01 1003.72 1002.13 1001.69 1001.47 998.11 998.34 998.40 998.94 999.60 999.25 999.43 998.55 997.78 998.77 998.62 998.81 999.18 999.92 1000.07 1000.31 1000.32 1000.37 1000.54 1000.84
1021.62 1020.95 1020.51 1020.04 1019.50 1018.64 1017.92 1017.09 1015.97 1014.71 1013.68 1012.63 1011.70 1010.86 1010.22 1009.35 1007.95 1006.86 1006.10 1005.08 1003.38 1002.51 1000.82 999.32 999.38 998.99 999.98 999.84 1000.17 1000.53 999.64 998.17 998.63 999.29 999.11 999.05 999.71 999.90 1000.56 1000.27 1000.26 1000.29 1000.60
Thickness
5638 5641 5643 5646 5648 5651 5656 5660 5661 5661 5660 5659 5663 5664 5662 5660 5660 5660 5658 5656 5656 5654 5652 5650 5649 5644 5639 5634 5630 5628 5625 5623 5620 5618 5618 5619 5619 5617 5615 5614 5613 5613 5614
5621 5624 5628 5633 5638 5639 5643 5646 5652 5657 5657 5655 5660 5662 5664 5662 5661 5658 5658 5656 5654 5653 5651 5650 5647 5645 5642 5637 5631 5627 5624 5622 5620 5618 5616 5617 5618 5616 5616 5613 5612 5609 5609
5605 5607 5612 5617 5621 5625 5630 5634 5640 5646 5651 5650 5655 5660 5660 5661 5662 5661 5656 5655 5657 5652 5650 5649 5646 5644 5642 5639 5634 5629 5625 5622 5620 5617 5615 5615 5614 5614 5614 5612 5611 5607 5605
5590 5591 5596 5599 5602 5608 5615 5620 5624 5630 5634 5644 5646 5653 5657 5658 5659 5660 5657 5655 5656 5655 5651 5648 5646 5643 5641 5639 5635 5631 5627 5623 5620 5618 5615 5613 5612 5610 5609 5609 5609 5606 5604
5574 5577 5581 5583 5587 5590 5595 5599 5605 5609 5617 5625 5633 5643 5649 5653 5655 5654 5658 5657 5653 5653 5654 5651 5646 5643 5641 5640 5637 5633 5630 5626 5622 5619 5615 5613 5611 5609 5606 5606 5604 5604 5603
5558 5560 5564 5567 5571 5575 5578 5582 5586 5591 5594 5604 5616 5626 5636 5646 5650 5651 5654 5653 5655 5653 5652 5648 5646 5643 5641 5639 5637 5634 5630 5626 5623 5620 5618 5614 5610 5608 5606 5603 5601 5599 5600
5542 5544 5544 5547 5550 5555 5560 5564 5567 5571 5578 5583 5594 5614 5629 5636 5646 5640 5644 5652 5651 5658 5654 5650 5646 5644 5642 5638 5637 5637 5633 5629 5625 5621 5618 5616 5611 5608 5605 5602 5599 5597 5596
5521 5523 5522 5524 5526 5532 5537 5542 5547 5555 5558 5560 5567 5579 5608 5627 5632 5631 5630 5633 5642 5646 5650 5649 5643 5640 5640 5639 5637 5635 5634 5632 5626 5622 5618 5616 5611 5606 5604 5601 5598 5595 5594
5504 5503 5502 5500 5502 5505 5512 5516 5522 5531 5540 5541 5539 5548 5576 5599 5601 5621 5621 5624 5628 5634 5642 5645 5641 5637 5635 5637 5637 5633 5634 5632 5627 5623 5618 5615 5613 5608 5603 5599 5597 5594 5592
5484 5483 5480 5478 5477 5480 5485 5490 5497 5502 5511 5522 5524 5530 5537 5548 5563 5587 5602 5616 5617 5628 5633 5635 5637 5630 5632 5632 5634 5635 5634 5631 5626 5623 5618 5615 5612 5610 5606 5599 5596 5594 5592
5464 5462 5460 5460 5460 5458 5460 5466 5471 5479 5487 5496 5504 5513 5516 5526 5539 5556 5585 5602 5615 5624 5627 5628 5628 5619 5615 5625 5629 5628 5629 5627 5624 5621 5619 5614 5611 5607 5606 5602 5595 5593 5592
5448 5445 5442 5440 5437 5439 5440 5443 5450 5456 5467 5474 5480 5490 5499 5508 5522 5534 5557 5584 5599 5610 5617 5619 5622 5618 5612 5616 5627 5627 5625 5626 5621 5618 5617 5614 5610 5607 5603 5604 5598 5594 5592
5431 5429 5425 5421 5418 5416 5413 5418 5424 5430 5439 5448 5458 5470 5481 5491 5501 5517 5529 5560 5581 5597 5603 5610 5613 5612 5613 5613 5621 5618 5621 5619 5616 5614 5614 5613 5611 5608 5604 5603 5600 5595 5593
5414 5412 5407 5402 5400 5400 5399 5399 5399 5402 5409 5420 5432 5441 5457 5472 5481 5496 5518 5534 5565 5584 5590 5603 5605 5607 5609 5612 5613 5613 5616 5616 5613 5612 5612 5611 5610 5607 5605 5602 5600 5595 5592
5400 5398 5396 5391 5389 5388 5387 5384 5385 5387 5392 5398 5404 5415 5431 5451 5465 5478 5497 5521 5547 5565 5589 5596 5603 5604 5610 5613 5614 5610 5608 5611 5607 5608 5611 5613 5609 5607 5604 5604 5601 5596 5592
5390 5389 5386 5383 5382 5377 5374 5373 5373 5375 5380 5384 5391 5400 5407 5423 5440 5460 5480 5506 5534 5558 5575 5597 5604 5605 5605 5609 5608 5604 5605 5601 5602 5606 5608 5608 5610 5608 5605 5604 5602 5598 5595
5382 5382 5379 5377 5374 5369 5364 5363 5363 5366 5370 5375 5382 5390 5396 5402 5418 5435 5459 5492 5528 5547 5566 5588 5596 5597 5601 5608 5604 5605 5601 5601 5601 5601 5603 5606 5606 5607 5606 5605 5602 5599 5595
5374 5373 5370 5368 5366 5361 5356 5355 5355 5358 5361 5366 5371 5378 5383 5391 5402 5412 5433 5466 5522 5546 5563 5576 5590 5591 5600 5599 5600 5604 5603 5601 5601 5600 5601 5606 5604 5604 5606 5605 5601 5599 5596
5365 5364 5361 5358 5356 5352 5349 5346 5345 5349 5352 5353 5358 5364 5370 5376 5390 5401 5415 5444 5484 5534 5561 5569 5582 5586 5592 5592 5593 5596 5602 5599 5602 5603 5600 5601 5601 5601 5601 5603 5601 5600 5597
5357 5355 5351 5347 5346 5344 5343 5339 5337 5340 5344 5345 5346 5352 5358 5365 5377 5386 5400 5425 5461 5502 5557 5570 5574 5580 5586 5585 5589 5593 5595 5597 5597 5598 5597 5601 5598 5597 5596 5596 5596 5597 5596
5346 5344 5343 5339 5337 5336 5335 5333 5333 5334 5336 5339 5341 5344 5348 5355 5365 5373 5384 5407 5442 5483 5545 5561 5563 5568 5574 5577 5587 5589 5590 5589 5591 5592 5593 5593 5596 5592 5589 5588 5591 5594 5595
5336 5334 5333 5331 5330 5329 5327 5326 5327 5331 5331 5332 5336 5338 5343 5350 5357 5366 5376 5397 5426 5467 5498 5541 5552 5560 5563 5571 5574 5579 5578 5572 5580 5585 5588 5588 5587 5586 5585 5586 5591 5591 5590
5325 5325 5325 5324 5323 5321 5319 5321 5324 5327 5326 5325 5326 5330 5337 5342 5349 5359 5372 5393 5422 5439 5469 5498 5518 5515 5531 5536 5552 5559 5571 5578 5581 5573 5577 5575 5572 5578 5577 5580 5583 5584 5585
5313 5315 5316 5314 5313 5313 5311 5314 5318 5323 5323 5320 5318 5322 5330 5338 5344 5355 5369 5389 5396 5423 5443 5475 5489 5495 5505 5510 5521 5536 5547 5550 5547 5555 5560 5561 5559 5568 5564 5571 5574 5577 5578
5301 5301 5301 5303 5303 5304 5302 5305 5309 5315 5317 5318 5317 5317 5323 5333 5340 5347 5361 5379 5401 5416 5420 5466 5476 5484 5489 5493 5505 5511 5527 5542 5537 5545 5546 5551 5547 5552 5552 5558 5563 5569 5570
5289 5289 5288 5288 5288 5291 5292 5295 5299 5304 5306 5311 5314 5313 5314 5321 5333 5341 5348 5363 5386 5400 5420 5445 5455 5467 5468 5478 5484 5487 5505 5525 5527 5529 5530 5540 5537 5542 5544 5548 5553 5558 5562